KINEIS-4C

Last updated on Mon Jun 22 2026 00:03:00 GMT+0000 (Coordinated Universal Time)

1 63301U 25056B 26172.54309972 .00001072 00000+0 17753-3 0 9993 2 63301 97.9099 296.5503 0002426 327.5338 32.5720 14.72256403 67773
UTC large
Height (km)
Speed (km/s)
/
Latitude / Longitude
Inclination (degrees)
Orbital Period (minutes)
Azimuth
Elevation
Range (km)
Doppler Factor

Next 0 passes for location: London (51.5072 / 0.1276)

No passes found over London.
KINEIS-4C